This demonstration page uses our WeatherBlox Daily Observations layout. Learn more.

Left ArrowRight Arrow

Hourly Observations for August 27, 2022

Temp ( °F °C ) Dew Point ( °F °C ) Humidity (%) Winds ( mph kmh ) Pressure ( in mb ) Visibility ( mi km ) Precip ( " mm )
12:15 am 00:15 Clear 76 24.7 54 12.3 46 46 S 12 19 29.79 1009 10 16 0.00 0.00
12:35 am 00:35 Clear 76 24.5 54 12.3 47 47 S 10 17 29.79 1009 10 16 0.00 0.00
12:55 am 00:55 Clear 76 24.4 55 12.5 47 47 S 12 19 29.79 1009 10 16 0.00 0.00
1:15 am 01:15 Clear 76 24.2 55 12.6 48 48 SSE 10 17 29.78 1009 10 16 0.00 0.00
1:35 am 01:35 Clear 75 23.8 55 12.7 50 50 S 9 15 29.79 1009 10 16 0.00 0.00
1:55 am 01:55 Clear 74 23.3 55 13 52 52 S 8 13 29.80 1009 10 16 0.00 0.00
2:15 am 02:15 Clear 73 22.6 56 13.3 56 56 SSW 9 15 29.82 1010 10 16 0.00 0.00
2:35 am 02:35 Clear 72 22.1 56 13.5 58 58 S 7 11 29.81 1010 10 16 0.00 0.00
2:55 am 02:55 Clear 72 22.1 56 13.3 57 57 S 8 13 29.80 1009 10 16 0.00 0.00
3:15 am 03:15 Clear 71 21.4 57 13.7 62 62 SSE 7 11 29.81 1009 10 16 0.00 0.00
3:35 am 03:35 Clear 70 21.2 57 14 63 63 SSE 9 15 29.81 1009 10 16 0.00 0.00
3:55 am 03:55 Clear 71 21.4 57 14 63 63 SSE 7 11 29.81 1009 10 16 0.00 0.00
4:15 am 04:15 Clear 70 21 57 14.1 65 65 S 8 13 29.81 1009 10 16 0.00 0.00
4:35 am 04:35 Partly Cloudy 70 21.2 58 14.2 64 64 SSW 10 17 29.81 1009 10 16 0.00 0.00
4:55 am 04:55 Partly Cloudy 72 22 57 13.7 59 59 S 7 11 29.80 1009 10 16 0.00 0.00
5:15 am 05:15 Clear 69 20.7 58 14.3 67 67 S 6 9 29.81 1010 10 16 0.00 0.00
5:35 am 05:35 Clear 69 20.3 58 14.5 69 69 S 7 11 29.81 1010 10 16 0.00 0.00
5:55 am 05:55 Clear 71 21.5 56 13.4 60 60 SSW 8 13 29.80 1009 10 16 0.00 0.00
6:15 am 06:15 Clear 72 22.1 56 13.3 57 57 SSW 8 13 29.80 1009 10 16 0.00 0.00
6:35 am 06:35 Clear 71 21.8 57 13.7 60 60 SSW 7 11 29.80 1009 10 16 0.00 0.00
6:55 am 06:55 Clear 71 21.6 57 14 62 62 SSW 7 11 29.80 1009 10 16 0.00 0.00
7:15 am 07:15 Sunny 71 21.4 57 13.8 62 62 S 7 11 29.81 1009 10 16 0.00 0.00
7:35 am 07:35 Sunny 72 22 58 14.2 61 61 S 9 15 29.81 1010 10 16 0.00 0.00
7:55 am 07:55 Sunny 71 21.6 58 14.7 65 65 S 8 13 29.82 1010 10 16 0.00 0.00
8:15 am 08:15 Mostly Cloudy 71 21.6 60 15.5 68 68 SSW 8 13 29.82 1010 10 16 0.00 0.00
8:35 am 08:35 Cloudy 71 21.6 60 15.7 69 69 SSW 8 13 29.80 1009 10 16 0.00 0.00
8:55 am 08:55 Mostly Cloudy 72 22.1 61 16.2 69 69 SSW 7 11 29.80 1009 10 16 0.00 0.00
9:15 am 09:15 Mostly Cloudy 73 22.5 61 16.2 68 68 SSW 7 11 29.80 1009 10 16 0.00 0.00
9:35 am 09:35 Mostly Cloudy with Light Rain 72 22.1 61 16.3 70 70 SW 6 9 29.80 1009 10 16 0.00 0.00
9:55 am 09:55 Cloudy with Light Rain 70 21.2 63 17.1 77 77 SW 6 9 29.82 1010 10 16 0.00 0.00
10:15 am 10:15 Cloudy with Light Rain 68 20.1 64 17.8 87 87 SW 8 13 29.82 1010 10 16 0.00 0.00
10:35 am 10:35 Cloudy with Rain 66 19.1 64 17.5 90 90 SSW 10 17 29.82 1010 7 11 0.02 0.51
10:55 am 10:55 Cloudy with Heavy Rain 66 18.7 64 17.5 93 93 S 12 19 29.83 1010 5 8 0.07 1.78
11:15 am 11:15 Cloudy with Drizzle 66 19 64 17.5 91 91 SSE 10 17 29.80 1009 10 16 0.00 0.00
11:35 am 11:35 Cloudy 67 19.2 63 17.3 89 89 SSE 13 20 29.80 1009 10 16 0.00 0.00
11:55 am 11:55 Cloudy 66 19.1 62 16.7 86 86 SE 15 24 29.80 1009 10 16 0.00 0.00
12:15 pm 12:15 Cloudy 67 19.5 62 16.5 83 83 SE 17 28 29.77 1008 10 16 0.00 0.00
12:35 pm 12:35 Cloudy 71 21.5 63 17.1 76 76 SE 20 31 29.75 1007 10 16 0.00 0.00
12:55 pm 12:55 Mostly Cloudy 73 22.6 63 17.3 72 72 SSE 17 28 29.74 1007 10 16 0.00 0.00
1:15 pm 13:15 Cloudy 73 22.6 64 17.7 74 74 S 20 31 29.74 1007 10 16 0.00 0.00
1:35 pm 13:35 Cloudy 74 23.1 64 18 73 73 S 15 24 29.73 1007 10 16 0.00 0.00
1:55 pm 13:55 Mostly Cloudy 74 23.4 65 18.3 73 73 SSE 18 30 29.72 1006 10 16 0.00 0.00
2:15 pm 14:15 Cloudy 75 24 65 18.6 72 72 SSE 18 30 29.71 1006 10 16 0.00 0.00
2:35 pm 14:35 Cloudy 77 25.1 66 18.9 69 69 S 16 26 29.69 1005 10 16 0.00 0.00
2:55 pm 14:55 Mostly Cloudy 79 26 67 19.2 66 66 SSE 18 30 29.67 1005 10 16 0.00 0.00
3:15 pm 15:15 Mostly Cloudy 80 26.9 67 19.2 63 63 SSE 22 35 29.65 1004 10 16 0.00 0.00
3:35 pm 15:35 Partly Cloudy 80 26.8 66 19.1 63 63 SSE 20 31 29.64 1004 10 16 0.00 0.00
3:50 pm 15:50 Sunny 80 26.7 66 19 63 63 SSE 20 31 29.63 1004 10 16 0.00 0.00
4:15 pm 16:15 Sunny 78 25.5 66 18.8 67 67 SSE 14 22 29.63 1004 10 16 0.00 0.00
4:35 pm 16:35 Sunny 79 26.3 66 18.8 63 63 SSE 13 20 29.62 1003 10 16 0.00 0.00
4:55 pm 16:55 Sunny 82 27.7 67 19.2 60 60 SSE 12 19 29.60 1002 10 16 0.00 0.00
5:15 pm 17:15 Sunny 83 28.6 64 18 53 53 SSE 16 26 29.58 1002 10 16 0.00 0.00
5:35 pm 17:35 Sunny 83 28.5 65 18.3 54 54 S 18 30 29.57 1001 10 16 0.00 0.00
5:55 pm 17:55 Sunny 82 27.8 65 18.5 57 57 SSE 15 24 29.58 1002 10 16 0.00 0.00
6:15 pm 18:15 Sunny 82 27.5 66 18.7 59 59 S 18 30 29.58 1002 10 16 0.00 0.00
6:35 pm 18:35 Sunny 81 27.2 66 18.9 61 61 S 16 26 29.58 1002 10 16 0.00 0.00
6:55 pm 18:55 Sunny 81 27 65 18.6 60 60 S 18 30 29.58 1002 10 16 0.00 0.00
7:15 pm 19:15 Sunny 79 26.3 65 18.5 62 62 S 15 24 29.59 1002 10 16 0.00 0.00
7:35 pm 19:35 Sunny 78 25.6 65 18.6 65 65 SSE 16 26 29.59 1002 10 16 0.00 0.00
7:55 pm 19:55 Sunny 77 24.8 65 18.4 68 68 SSE 15 24 29.60 1002 10 16 0.00 0.00
8:15 pm 20:15 Sunny 75 23.7 65 18.5 73 73 SSE 14 22 29.61 1003 10 16 0.00 0.00
8:35 pm 20:35 Clear 74 23.1 65 18.5 75 75 SSE 8 13 29.61 1003 10 16 0.00 0.00
8:55 pm 20:55 Clear 73 22.5 65 18.5 78 78 SSE 10 17 29.62 1003 10 16 0.00 0.00
9:15 pm 21:15 Clear 72 22 65 18.2 79 79 SSE 10 17 29.63 1003 10 16 0.00 0.00
9:35 pm 21:35 Clear 71 21.6 65 18.5 83 83 SSE 9 15 29.65 1004 10 16 0.00 0.00
9:55 pm 21:55 Clear 71 21.5 66 18.7 84 84 SSE 13 20 29.65 1004 10 16 0.00 0.00
10:15 pm 22:15 Clear 70 21.3 66 18.8 86 86 SSE 12 19 29.66 1004 10 16 0.00 0.00
10:35 pm 22:35 Clear 70 21.1 66 18.8 87 87 SSE 9 15 29.66 1004 10 16 0.00 0.00
10:55 pm 22:55 Clear 69 20.6 66 18.7 89 89 SSE 12 19 29.65 1004 10 16 0.00 0.00
11:15 pm 23:15 Clear 69 20.5 66 18.7 89 89 SSE 10 17 29.65 1004 10 16 0.00 0.00
11:35 pm 23:35 Clear 68 20.2 65 18.6 91 91 S 10 17 29.66 1004 10 16 0.00 0.00
11:55 pm 23:55 Clear 68 20 66 18.7 92 92 S 8 13 29.65 1004 10 16 0.00 0.00

Powered by AerisWeather